CW0133 Weather Reports


time (UTC)temp
C
wind
direction
speed
KPH
gust
KPH
rain 1hr
cm
rain 24hr
cm
rain mn
cm
humidity
%
barometer
mb
20260904035004 27 118 6.4 16.1 0.00 0.00 0.00 77 1013.6
20260904034525 27 112 6.4 12.9 0.00 0.00 0.00 77 1013.6
20260904034003 27 114 6.4 12.9 0.00 0.00 0.00 76 1013.7
20260904033503 27 117 6.4 16.1 0.00 0.00 0.00 76 1013.7
20260904033003 27 114 6.4 16.1 0.00 0.00 0.00 76 1013.5
20260904032503 28 113 8.0 16.1 0.00 0.00 0.00 76 1013.4
20260904032024 28 111 8.0 19.3 0.00 0.00 0.00 75 1013.3
20260904031503 28 112 9.7 19.3 0.00 0.00 0.00 75 1013.4
20260904031003 28 114 9.7 19.3 0.00 0.00 0.00 75 1013.2
20260904030503 28 116 8.0 17.7 0.00 0.00 0.00 74 1013.2
20260904030003 28 113 8.0 17.7 0.00 0.00 0.00 74 1013.1
20260904025503 28 113 8.0 17.7 0.00 0.00 0.00 73 1013.1
20260904025024 28 113 8.0 17.7 0.00 0.00 0.00 73 1013.1
20260904024524 28 114 8.0 16.1 0.00 0.00 0.00 72 1013.1
20260904024003 28 108 8.0 20.9 0.00 0.00 0.00 72 1013.0
20260904023504 28 105 9.7 20.9 0.00 0.00 0.00 72 1012.9
20260904023003 28 112 9.7 17.7 0.00 0.00 0.00 71 1012.8
20260904022503 28 108 9.7 20.9 0.00 0.00 0.00 71 1012.9
20260904022025 28 104 9.7 20.9 0.00 0.00 0.00 71 1012.9
20260904021503 29 102 6.4 16.1 0.00 0.00 0.00 71 1012.9
20260904021003 29 103 6.4 12.9 0.00 0.00 0.00 70 1012.8
20260904020524 29 110 8.0 17.7 0.00 0.00 0.00 70 1012.7
20260904020003 29 113 11.3 19.3 0.00 0.00 0.00 70 1012.4
20260904015503 29 113 11.3 20.9 0.00 0.00 0.00 70 1012.2
20260904015024 29 117 9.7 20.9 0.00 0.00 0.00 70 1012.1
20260904014503 29 119 9.7 19.3 0.00 0.00 0.00 69 1012.0
20260904014003 29 117 9.7 19.3 0.00 0.00 0.00 69 1012.0
20260904013503 30 117 9.7 22.5 0.00 0.00 0.00 69 1012.1
20260904013003 30 114 11.3 22.5 0.00 0.00 0.00 68 1012.1
20260904012503 30 117 11.3 20.9 0.00 0.00 0.00 68 1012.0
20260904012003 30 115 12.9 27.4 0.00 0.00 0.00 68 1012.0
20260904011525 30 112 12.9 27.4 0.00 0.00 0.00 67 1011.9
20260904011003 30 114 9.7 22.5 0.00 0.00 0.00 67 1012.1
20260904010503 30 110 9.7 25.7 0.00 0.00 0.00 66 1012.0
20260904010003 30 117 11.3 25.7 0.00 0.00 0.00 66 1012.0
20260904005503 30 121 12.9 25.7 0.00 0.00 0.00 65 1012.0
20260904005003 30 116 12.9 25.7 0.00 0.00 0.00 65 1012.1
20260904004503 31 115 11.3 25.7 0.00 0.00 0.00 64 1012.0
20260904004025 31 113 9.7 20.9 0.00 0.00 0.00 64 1011.9
20260904003504 31 110 11.3 20.9 0.00 0.00 0.00 63 1011.9
20260904003004 31 111 11.3 25.7 0.00 0.00 0.00 63 1011.9
20260904002504 31 110 12.9 27.4 0.00 0.00 0.00 62 1011.9
20260904002004 31 109 16.1 30.6 0.00 0.00 0.00 61 1011.9
20260904001504 31 111 12.9 30.6 0.00 0.00 0.00 61 1011.8
20260904001004 31 116 9.7 25.7 0.00 0.00 0.00 60 1011.8
20260904000504 32 114 9.7 20.9 0.00 0.00 0.00 60 1011.7
20260904000004 32 110 11.3 27.4 0.00 0.00 0.00 60 1011.8
20260903235504 32 116 9.7 27.4 0.00 0.00 0.00 61 1011.9
20260903235025 32 123 11.3 27.4 0.00 0.00 0.00 61 1011.8
20260903234504 32 126 12.9 27.4 0.00 0.00 0.00 59 1011.8
20260903234004 32 121 16.1 29.0 0.00 0.00 0.00 59 1011.8
20260903233504 32 119 12.9 29.0 0.00 0.00 0.00 58 1011.6
20260903233004 33 122 12.9 27.4 0.00 0.00 0.00 58 1011.5
20260903232504 33 120 17.7 32.2 0.00 0.00 0.00 58 1011.4
20260903232004 33 117 16.1 32.2 0.00 0.00 0.00 57 1011.4
20260903231504 33 108 16.1 38.6 0.00 0.00 0.00 57 1011.4
20260903231004 34 111 19.3 38.6 0.00 0.00 0.00 57 1011.3
20260903230525 34 117 20.9 40.2 0.00 0.00 0.00 58 1011.3
20260903230004 34 119 20.9 41.8 0.00 0.00 0.00 57 1011.4
20260903225504 34 117 19.3 40.2 0.00 0.00 0.00 56 1011.0
20260903225004 35 109 20.9 41.8 0.00 0.00 0.00 53 1011.3
20260903224525 35 102 17.7 41.8 0.00 0.00 0.00 50 1010.9
20260903224004 36 102 12.9 41.8 0.00 0.00 0.00 47 1010.7
20260903223504 36 104 12.9 37.0 0.00 0.00 0.00 47 1010.8
20260903223004 35 113 16.1 38.6 0.00 0.00 0.00 47 1010.7
20260903222525 35 114 19.3 38.6 0.00 0.00 0.00 47 1010.7
20260903222004 35 110 17.7 45.1 0.00 0.00 0.00 47 1010.7
20260903221524 36 109 19.3 46.7 0.00 0.00 0.00 46 1010.7
20260903221004 36 108 22.5 46.7 0.00 0.00 0.00 46 1010.7
20260903220504 36 108 20.9 46.7 0.00 0.00 0.00 46 1010.7
20260903220004 37 109 16.1 46.7 0.00 0.00 0.00 44 1010.7
20260903215504 37 117 11.3 35.4 0.00 0.00 0.00 42 1010.7
20260903215004 38 121 12.9 30.6 0.00 0.00 0.00 42 1010.6
20260903214503 38 112 11.3 30.6 0.00 0.00 0.00 41 1010.5
20260903214004 38 109 9.7 27.4 0.00 0.00 0.00 41 1010.5
20260903213504 38 102 8.0 27.4 0.00 0.00 0.00 41 1010.5
20260903213025 38 104 9.7 25.7 0.00 0.00 0.00 41 1010.6
20260903212504 38 119 9.7 25.7 0.00 0.00 0.00 43 1010.9
20260903212025 38 130 9.7 25.7 0.00 0.00 0.00 42 1010.7
20260903211525 38 139 11.3 20.9 0.00 0.00 0.00 41 1010.7
20260903211004 38 130 9.7 25.7 0.00 0.00 0.00 42 1010.8
20260903210504 38 121 6.4 25.7 0.00 0.00 0.00 42 1010.7
20260903210004 39 128 6.4 20.9 0.00 0.00 0.00 40 1010.8
20260903205504 39 138 6.4 16.1 0.00 0.00 0.00 39 1010.8
20260903205004 39 133 8.0 17.7 0.00 0.00 0.00 39 1011.0
20260903204503 40 144 9.7 17.7 0.00 0.00 0.00 38 1011.1
20260903204004 40 136 9.7 20.9 0.00 0.00 0.00 38 1011.2
20260903203504 40 127 11.3 27.4 0.00 0.00 0.00 38 1011.2
20260903203004 41 145 11.3 27.4 0.00 0.00 0.00 38 1011.3
20260903202504 40 154 8.0 20.9 0.00 0.00 0.00 37 1011.5
20260903202004 40 148 8.0 20.9 0.00 0.00 0.00 38 1011.5
20260903201525 40 142 9.7 27.4 0.00 0.00 0.00 37 1011.5
20260903201003 40 157 9.7 27.4 0.00 0.00 0.00 38 1011.6
20260903200503 40 171 8.0 22.5 0.00 0.00 0.00 38 1011.6
20260903200004 40 158 8.0 20.9 0.00 0.00 0.00 39 1011.7
20260903195504 40 181 9.7 22.5 0.00 0.00 0.00 40 1011.7
20260903195004 40 187 11.3 22.5 0.00 0.00 0.00 40 1011.7
20260903194524 40 179 11.3 22.5 0.00 0.00 0.00 40 1011.7
20260903194025 40 167 9.7 22.5 0.00 0.00 0.00 40 1011.7
20260903193504 40 139 11.3 22.5 0.00 0.00 0.00 42 1011.9
20260903193025 39 137 9.7 22.5 0.00 0.00 0.00 41 1012.0
20260903192504 39 190 8.0 22.5 0.00 0.00 0.00 43 1012.1
20260903192004 39 200 9.7 22.5 0.00 0.00 0.00 41 1012.2
20260903191525 39 181 8.0 19.3 0.00 0.00 0.00 41 1012.2
20260903191025 39 148 9.7 20.9 0.00 0.00 0.00 43 1012.4
20260903190504 39 134 12.9 25.7 0.00 0.00 0.00 44 1012.7
20260903190024 39 128 12.9 32.2 0.00 0.00 0.00 43 1012.5
20260903185504 38 162 9.7 32.2 0.00 0.00 0.00 44 1012.5
20260903185025 38 202 9.7 22.5 0.00 0.00 0.00 45 1012.6
20260903184503 38 187 12.9 22.5 0.00 0.00 0.00 43 1012.7
20260903184003 38 152 12.9 22.5 0.00 0.00 0.00 46 1012.8
20260903183504 38 133 9.7 22.5 0.00 0.00 0.00 45 1012.9
20260903183003 38 147 9.7 22.5 0.00 0.00 0.00 46 1013.0
20260903182525 38 157 11.3 25.7 0.00 0.00 0.00 45 1013.0
20260903182003 38 154 11.3 25.7 0.00 0.00 0.00 45 1013.2
20260903181503 37 147 9.7 22.5 0.00 0.00 0.00 47 1013.3
20260903181004 37 148 11.3 22.5 0.00 0.00 0.00 47 1013.4
20260903180504 37 160 11.3 22.5 0.00 0.00 0.00 48 1013.4
20260903180003 37 180 9.7 22.5 0.00 0.00 0.00 48 1013.4
20260903175504 36 187 11.3 29.0 0.00 0.00 0.00 48 1013.5
20260903175003 36 190 11.3 29.0 0.00 0.00 0.00 49 1013.5
20260903174504 36 192 11.3 25.7 0.00 0.00 0.00 50 1013.5
20260903174003 36 191 11.3 25.7 0.00 0.00 0.00 51 1013.4
20260903173503 35 197 11.3 27.4 0.00 0.00 0.00 51 1013.5
20260903173003 35 185 11.3 27.4 0.00 0.00 0.00 51 1013.6
20260903172503 35 167 11.3 22.5 0.00 0.00 0.00 54 1013.7
20260903172004 35 161 12.9 29.0 0.00 0.00 0.00 54 1013.8
20260903171503 35 165 17.7 30.6 0.00 0.00 0.00 56 1013.9
20260903171004 34 177 17.7 30.6 0.00 0.00 0.00 55 1014.0
20260903170504 34 170 12.9 25.7 0.00 0.00 0.00 54 1014.0
20260903170003 34 151 12.9 25.7 0.00 0.00 0.00 56 1014.1
20260903165504 34 147 12.9 27.4 0.00 0.00 0.00 57 1014.1
20260903165025 33 155 12.9 27.4 0.00 0.00 0.00 59 1014.1
20260903164503 33 157 11.3 27.4 0.00 0.00 0.00 60 1014.2
20260903164003 33 160 11.3 27.4 0.00 0.00 0.00 61 1014.2
20260903163503 33 180 11.3 29.0 0.00 0.00 0.00 60 1014.2
20260903163003 33 194 11.3 29.0 0.00 0.00 0.00 60 1014.2
20260903162503 33 204 11.3 22.5 0.00 0.00 0.00 61 1014.2
20260903162003 32 195 12.9 30.6 0.00 0.00 0.00 61 1014.3
20260903161503 32 182 16.1 35.4 0.00 0.00 0.00 61 1014.2
20260903161003 32 175 17.7 35.4 0.00 0.00 0.00 62 1014.3
20260903160503 32 174 16.1 29.0 0.00 0.00 0.00 63 1014.3
20260903160003 32 182 11.3 29.0 0.00 0.00 0.00 65 1014.3
20260903155503 32 193 11.3 22.5 0.00 0.00 0.00 65 1014.3
20260903155003 31 185 12.9 29.0 0.00 0.00 0.00 66 1014.3
20260903154503 31 171 12.9 29.0 0.00 0.00 0.00 68 1014.2
20260903154024 31 173 11.3 22.5 0.00 0.00 0.00 68 1014.2
20260903153524 31 179 9.7 20.9 0.00 0.00 0.00 68 1014.3
20260903153003 31 180 11.3 25.7 0.00 0.00 0.00 70 1014.3
20260903152524 31 181 12.9 30.6 0.00 0.00 0.00 69 1014.3
20260903152003 30 190 16.1 30.6 0.00 0.00 0.00 70 1014.2
20260903151503 30 196 16.1 30.6 0.00 0.00 0.00 70 1014.2
20260903151003 30 188 16.1 30.6 0.00 0.00 0.00 71 1014.2
20260903150503 30 190 16.1 40.2 0.00 0.00 0.00 71 1014.2
20260903150003 30 191 12.9 40.2 0.00 0.00 0.00 72 1014.2
20260903145503 30 183 12.9 29.0 0.00 0.00 0.00 74 1014.1
20260903145003 30 189 11.3 29.0 0.00 0.00 0.00 75 1014.1
20260903144503 29 198 12.9 30.6 0.00 0.00 0.00 75 1014.1
20260903144024 29 190 16.1 32.2 0.00 0.00 0.00 75 1014.1
20260903143503 29 178 17.7 32.2 0.00 0.00 0.00 76 1014.2
20260903143004 28 175 16.1 32.2 0.00 0.00 0.00 76 1014.2
20260903142503 28 185 16.1 32.2 0.00 0.00 0.00 77 1014.3
20260903142003 28 195 12.9 29.0 0.00 0.00 0.00 77 1014.3
20260903141524 28 194 16.1 30.6 0.00 0.00 0.00 77 1014.4
20260903141003 28 185 16.1 37.0 0.00 0.00 0.00 78 1014.3
20260903140503 28 180 12.9 37.0 0.00 0.00 0.00 79 1014.3
20260903140003 28 185 12.9 25.7 0.00 0.00 0.00 80 1014.3
20260903135503 28 184 16.1 29.0 0.00 0.00 0.00 80 1014.3
20260903135003 28 180 16.1 29.0 0.00 0.00 0.00 81 1014.3
20260903134503 28 182 16.1 29.0 0.00 0.00 0.00 81 1014.3
20260903134003 28 181 16.1 30.6 0.00 0.00 0.00 82 1014.3
20260903133503 27 178 12.9 30.6 0.00 0.00 0.00 82 1014.4
20260903133024 27 185 12.9 25.7 0.00 0.00 0.00 83 1014.4
20260903132503 27 185 11.3 25.7 0.00 0.00 0.00 83 1014.4
20260903132003 27 177 11.3 25.7 0.00 0.00 0.00 83 1014.4
20260903131503 27 175 12.9 25.7 0.00 0.00 0.00 84 1014.4
20260903131003 27 175 12.9 25.7 0.00 0.00 0.00 84 1014.4
20260903130524 27 173 12.9 27.4 0.00 0.00 0.00 84 1014.3
20260903130003 27 171 12.9 29.0 0.00 0.00 0.00 84 1014.4
20260903125503 27 176 12.9 29.0 0.00 0.00 0.00 84 1014.3
20260903125003 27 179 12.9 22.5 0.00 0.00 0.00 84 1014.2
20260903124503 27 178 11.3 22.5 0.00 0.00 0.00 84 1014.2
20260903124003 27 180 11.3 22.5 0.00 0.00 0.00 85 1014.2
20260903123504 27 179 11.3 22.5 0.00 0.00 0.00 85 1014.1
20260903123004 27 178 9.7 22.5 0.00 0.00 0.00 85 1014.1
20260903122504 27 182 11.3 20.9 0.00 0.00 0.00 85 1014.1
20260903122004 27 180 11.3 20.9 0.00 0.00 0.00 85 1014.0
20260903121504 27 176 9.7 20.9 0.00 0.00 0.00 85 1013.9
20260903121004 27 175 9.7 19.3 0.00 0.00 0.00 85 1013.9
20260903120504 27 177 11.3 19.3 0.00 0.00 0.00 86 1013.9
20260903120004 27 178 11.3 25.7 0.00 0.00 0.00 86 1013.8
20260903115504 27 180 11.3 25.7 0.00 0.00 0.00 86 1013.7
20260903115004 27 178 11.3 20.9 0.00 0.00 0.00 86 1013.7
20260903114504 27 174 9.7 17.7 0.00 0.00 0.00 86 1013.7
20260903114004 27 178 8.0 12.9 0.00 0.00 0.00 86 1013.7
20260903113504 27 181 8.0 16.1 0.00 0.00 0.00 87 1013.7
20260903113004 26 177 9.7 19.3 0.00 0.00 0.00 87 1013.6
20260903112504 26 173 11.3 19.3 0.00 0.00 0.00 87 1013.7
20260903112025 26 172 9.7 19.3 0.00 0.00 0.00 87 1013.7
20260903111504 26 172 9.7 19.3 0.00 0.00 0.00 87 1013.7
20260903111004 26 170 11.3 19.3 0.00 0.00 0.00 87 1013.7
20260903110504 26 171 11.3 19.3 0.00 0.00 0.00 88 1013.6
20260903110004 26 172 9.7 19.3 0.00 0.00 0.00 88 1013.6
20260903105504 26 171 9.7 19.3 0.00 0.00 0.00 88 1013.7
20260903105004 26 168 9.7 17.7 0.00 0.00 0.00 88 1013.7
20260903104504 26 169 9.7 17.7 0.00 0.00 0.00 88 1013.6
20260903104005 26 170 8.0 12.9 0.00 0.00 0.00 88 1013.6
20260903103504 26 170 8.0 17.7 0.00 0.00 0.00 88 1013.5
20260903103004 26 174 8.0 17.7 0.00 0.00 0.00 88 1013.5
20260903102504 26 174 8.0 16.1 0.00 0.00 0.00 88 1013.5
20260903102004 26 172 8.0 16.1 0.00 0.00 0.00 88 1013.6
20260903101504 26 170 8.0 16.1 0.00 0.00 0.00 88 1013.5
20260903101025 26 165 8.0 16.1 0.00 0.00 0.00 88 1013.5
20260903100504 26 166 8.0 12.9 0.00 0.00 0.00 88 1013.6
20260903100004 26 165 8.0 12.9 0.00 0.00 0.00 88 1013.6
20260903095504 26 168 8.0 16.1 0.00 0.00 0.00 87 1013.6
20260903095004 26 170 6.4 16.1 0.00 0.00 0.00 87 1013.6
20260903094525 26 166 8.0 12.9 0.00 0.00 0.00 87 1013.6
20260903094025 26 166 8.0 17.7 0.00 0.00 0.00 87 1013.7
20260903093525 26 165 8.0 17.7 0.00 0.00 0.00 87 1013.7
20260903093004 26 166 8.0 16.1 0.00 0.00 0.00 87 1013.7
20260903092504 26 170 8.0 12.9 0.00 0.00 0.00 87 1013.7
20260903092004 26 170 8.0 12.9 0.00 0.00 0.00 87 1013.8
20260903091525 26 169 9.7 17.7 0.00 0.00 0.00 87 1013.7
20260903091025 26 167 8.0 17.7 0.00 0.00 0.00 86 1013.7
20260903090504 26 166 8.0 17.7 0.00 0.00 0.00 86 1013.8
20260903090004 26 168 8.0 17.7 0.00 0.00 0.00 86 1013.8
20260903085504 26 173 8.0 16.1 0.00 0.00 0.00 86 1013.8
20260903085003 26 172 8.0 16.1 0.00 0.00 0.00 86 1013.8
20260903084504 27 167 8.0 16.1 0.00 0.00 0.00 86 1013.7
20260903084004 27 163 9.7 16.1 0.00 0.00 0.00 86 1013.7
20260903083504 27 166 9.7 19.3 0.00 0.00 0.00 85 1013.8
20260903083004 27 166 9.7 19.3 0.00 0.00 0.00 85 1013.8
20260903082504 27 168 8.0 16.1 0.00 0.00 0.00 85 1013.7
20260903082025 27 170 9.7 16.1 0.00 0.00 0.00 85 1013.8
20260903081503 27 167 9.7 19.3 0.00 0.00 0.00 85 1013.8
20260903081004 27 167 11.3 19.3 0.00 0.00 0.00 84 1013.8
20260903080525 27 167 9.7 19.3 0.00 0.00 0.00 84 1013.8
20260903080004 27 165 9.7 19.3 0.00 0.00 0.00 84 1013.8
20260903075504 27 166 9.7 19.3 0.00 0.00 0.00 84 1013.9
20260903075004 27 163 9.7 17.7 0.00 0.00 0.00 83 1014.0
20260903074504 27 158 9.7 17.7 0.00 0.00 0.00 83 1014.0
20260903074025 27 159 9.7 17.7 0.00 0.00 0.00 83 1014.0
20260903073503 27 153 9.7 19.3 0.00 0.00 0.00 83 1014.1
20260903073004 27 155 9.7 19.3 0.00 0.00 0.00 82 1014.1
20260903072504 27 156 9.7 19.3 0.00 0.00 0.00 82 1014.0
20260903072004 27 154 9.7 19.3 0.00 0.00 0.00 82 1014.1
20260903071524 27 161 11.3 19.3 0.00 0.00 0.00 81 1014.1
20260903071004 27 163 9.7 19.3 0.00 0.00 0.00 81 1014.1
20260903070524 27 160 9.7 19.3 0.00 0.00 0.00 80 1014.2
20260903070004 27 157 9.7 19.3 0.00 0.00 0.00 80 1014.2
20260903065504 27 159 9.7 19.3 0.00 0.00 0.00 79 1014.3
20260903065004 27 160 9.7 19.3 0.00 0.00 0.00 79 1014.2
20260903064504 28 154 9.7 17.7 0.00 0.00 0.00 78 1014.2
20260903064003 28 155 9.7 19.3 0.00 0.00 0.00 78 1014.2
20260903063503 28 162 9.7 19.3 0.00 0.00 0.00 77 1014.2
20260903063004 28 161 8.0 16.1 0.00 0.00 0.00 76 1014.2
20260903062504 28 157 8.0 17.7 0.00 0.00 0.00 76 1014.2
20260903062003 28 157 9.7 20.9 0.00 0.00 0.00 76 1014.2
20260903061504 28 159 11.3 20.9 0.00 0.00 0.00 75 1014.2
20260903061003 28 155 11.3 25.7 0.00 0.00 0.00 74 1014.2
20260903060503 28 150 11.3 25.7 0.00 0.00 0.00 73 1014.2
20260903060003 28 161 12.9 25.7 0.00 0.00 0.00 73 1014.2
20260903055503 28 162 12.9 25.7 0.00 0.00 0.00 72 1014.2
20260903055004 28 151 11.3 27.4 0.00 0.00 0.00 72 1014.2
20260903054504 28 155 12.9 29.0 0.00 0.00 0.00 71 1014.2
20260903054003 28 155 12.9 29.0 0.00 0.00 0.00 71 1014.2
20260903053503 28 147 12.9 27.4 0.00 0.00 0.00 70 1014.2
20260903053003 28 147 11.3 22.5 0.00 0.00 0.00 70 1014.2
20260903052525 28 138 9.7 22.5 0.00 0.00 0.00 71 1014.1
20260903052003 28 129 9.7 22.5 0.00 0.00 0.00 71 1014.2
20260903051503 28 129 11.3 22.5 0.00 0.00 0.00 71 1014.3
20260903051003 28 127 11.3 22.5 0.00 0.00 0.00 70 1014.2
20260903050504 29 126 11.3 22.5 0.00 0.00 0.00 70 1014.1
20260903050004 29 123 9.7 20.9 0.00 0.00 0.00 69 1014.1
20260903045503 29 118 9.7 20.9 0.00 0.00 0.00 69 1014.2
20260903045025 29 120 8.0 19.3 0.00 0.00 0.00 69 1014.1
20260903044503 29 121 11.3 22.5 0.00 0.00 0.00 68 1013.9
20260903044003 30 122 12.9 25.7 0.00 0.00 0.00 68 1013.8
20260903043503 30 122 11.3 25.7 0.00 0.00 0.00 67 1013.8
20260903043025 30 119 11.3 25.7 0.00 0.00 0.00 67 1013.8
20260903042503 30 115 11.3 19.3 0.00 0.00 0.00 66 1013.8
20260903042004 30 115 9.7 19.3 0.00 0.00 0.00 65 1013.8
20260903041503 30 114 8.0 19.3 0.00 0.00 0.00 64 1013.8
20260903041004 30 108 8.0 16.1 0.00 0.00 0.00 63 1013.8
20260903040503 30 110 8.0 19.3 0.00 0.00 0.00 63 1013.7
20260903040004 30 117 8.0 19.3 0.00 0.00 0.00 63 1013.7
20260903035524 30 113 8.0 19.3 0.00 0.00 0.00 62 1013.7